Regional Weather Roundup
Issued by NWS

Home | Current Version | Previous Version | Graphics & Text | Print | Product List | Glossary On
Versions: 1 2 3 4 5 6 7 8 9 10 11 12 13 14 15 16 17 18 19 20 21 22 23 24 25 26 27 28 29 30 31 32 33 34 35 36 37 38 39 40 41 42 43 44 45 46 47 48 49 50
000
ASUS45 KCYS 271910
RWRWY

WYOMING REGIONAL WEATHER ROUNDUP
NATIONAL WEATHER SERVICE CHEYENNE WY
1200 PM MST FRI FEB 27 2015

NOTE:  "FAIR" INDICATES FEW OR NO CLOUDS BELOW 12,000 FEET
WITH NO SIGNIFICANT WEATHER AND/OR OBSTRUCTIONS TO VISIBILITY.

WYZ001-272000-
YELLOWSTONE NATIONAL PARK

CITY           SKY/WX    TMP DP  RH WIND       PRES   REMARKS
LK YELLOWSTONE   N/A     12   3  67 E3        29.75F
W YELLOWSTONE  NOT AVBL

$$
WYZ002>013-054>058-071-098>099-272000-
NORTHERN WYOMING

CITY           SKY/WX    TMP DP  RH WIND       PRES   REMARKS
JACKSON        LGT SNOW  16  12  86 CALM      29.79F
CODY           FAIR      16   9  73 NE3       29.86F
GREYBULL       MIX PCPN  23   5  46 MISG      29.93F
WORLAND        FAIR      19   8  62 W3        29.92F
SHERIDAN       FAIR       8   1  73 CALM      29.93F
BUFFALO        FAIR      14   4  64 S7        29.87S WCI   4
GILLETTE       FAIR      16   8  71 S25       29.93F WCI  -3
HULETT         FAIR      21   9  58 SW14G20   29.97F WCI   8
NEWCASTLE      MOCLDY    19   7  58 SE17G26   30.03F WCI   4

$$
WYZ014>020-022>026-101>103-272000-
CENTRAL WYOMING

CITY           SKY/WX    TMP DP  RH WIND       PRES   REMARKS
BIG PINEY      CLOUDY    18   8  65 VRB6      29.80F WCI  10
PINEDALE       CLOUDY    18   9  68 CALM      29.80F
DUBOIS         FAIR      14   5  67 SE10      29.71S WCI   1
LANDER         FAIR       7   3  84 CALM      29.86F
RIVERTON       CLOUDY     9   4  80 VRB5      29.88F WCI   1
CASPER         FAIR      18   7  62 SE7       29.87F WCI   9
DOUGLAS        FAIR      18   8  65 SE18      29.93F WCI   2

$$
WYZ021-027>030-104>119-272000-
SOUTHERN WYOMING

CITY           SKY/WX    TMP DP  RH WIND       PRES   REMARKS
EVANSTON       CLOUDY    23  17  78 VRB5      29.77F WCI  17
FORT BRIDGER   MOCLDY    20  15  81 SE3       29.82F
ROCK SPRINGS   FAIR      21  12  68 S7        29.80F WCI  12
DIXON          FAIR      24  13  61 CALM      29.85F
RAWLINS        FAIR      24  10  55 SW13      29.80F WCI  12
SARATOGA       FAIR      21  10  63 CALM      29.81F
LARAMIE        FAIR      17   6  62 S6        29.77F WCI   9
CHEYENNE       CLOUDY    11   3  70 S14       29.89F WCI  -5
TORRINGTON     CLOUDY    21   8  57 S24G31    30.03F WCI   4
PINE BLUFFS    CLOUDY    16   9  73 S17G24    30.00F HAZE    WCI   0

$$


USA.gov is the U.S. government's official web portal to all federal, state and local government web resources and services.